Regional Weather Roundup
Issued by NWS

Home | Current Version | Previous Version | Text Only | Print | Product List | Glossary On
Versions: 1 2 3 4 5 6 7 8 9 10 11 12 13 14 15 16 17 18 19 20 21 22 23 24 25 26 27 28 29 30 31 32 33 34 35 36 37 38 39 40 41 42 43 44 45 46 47 48 49 50
000
ASUS43 KLOT 210908
RWRIL

ILLINOIS REGIONAL WEATHER ROUNDUP
NATIONAL WEATHER SERVICE CHICAGO/ROMEOVILLE IL
400 AM CDT SAT APR 21 2018

NOTE: "FAIR" INDICATES FEW OR NO CLOUDS BELOW 12,000 FEET WITH NO
SIGNIFICANT WEATHER AND/OR OBSTRUCTIONS TO VISIBILITY.

* THESE STATIONS ARE NOT UNDER NWS QUALITY CONTROL. THEY ALSO MAY NOT
  REPORT WEATHER SUCH AS PRECIPITATION OR FOG.

ILZ001-002-007-009-015-016-024-211000-
NORTHWEST ILLINOIS

CITY           SKY/WX    TMP DP  RH WIND       PRES   REMARKS
MOLINE         FAIR      45  28  51 E13       30.37F
STERLING*      FAIR      42  29  59 CALM      30.43R HAZE
SAVANNA*       MOCLDY    44  26  49 CALM      30.43R
$$

ILZ003-004-008-010-011-017-018-211000-
NORTH CENTRAL ILLINOIS

CITY           SKY/WX    TMP DP  RH WIND       PRES   REMARKS
ROCKFORD       FAIR      41  18  39 CALM      30.44R
FREEPORT*      FAIR      38  24  57 CALM      30.45S
ROCHELLE*      FAIR      38  26  60 CALM      30.43S
DE KALB*       FAIR      38  21  49 SE3       30.43R
PERU*          FAIR      44  25  47 E5        30.43R
$$

ILZ005-006-012>014-019>023-211000-
NORTHEAST ILLINOIS

CITY           SKY/WX    TMP DP  RH WIND       PRES   REMARKS
CHICAGO-OHARE  CLOUDY    41  22  46 E3        30.43R
CHICAGO-MIDWAY CLOUDY    43  20  39 E3        30.44S
AURORA         FAIR      38  24  57 CALM      30.43R
LANSING*       FAIR      37  27  67 CALM      30.44R
JOLIET*        FAIR      43  24  47 CALM      30.43R
WAUKEGAN       FAIR      30  21  69 CALM      30.43S
DUPAGE AIRPORT FAIR      42  17  36 E3        30.42S
KANKAKEE*      FAIR      39  21  47 E6        30.43R
WHEELING       FAIR      37  26  64 CALM      30.45S
MORRIS*        FAIR      40  22  49 CALM      30.43R
ROMEOVILLE*    FAIR      43  19  38 E7        30.42S
NORTHERLY ISL    N/A     40  19  43 N1          N/A
$$

LMZ740>746-211000-
SOUTHERN LAKE MICHIGAN

STATION/POSITION SKY/WX   TEMP    WIND        PRES    VSBY  WAVE
                          AIR SEA DIR/SP/G                  HT/PER
                          (F)     (DEG/KT/KT) (MB)    (MI)  (FT/S)
HARRISON CRIB              39     330/  1/  1   N/A
BURNHAM HARBOR             40     360/  2/  3   N/A
CALUMET HARBOR             37      30/  2/  3 1029.8S
BURNS HARBOR               43      90/  6/  8 1030.8S
MICHIGAN CITY              41      60/  5/  5   N/A
$$

ILZ025>027-034>036-040-047-049-050-058-095>099-211000-
WEST-CENTRAL ILLINOIS

CITY           SKY/WX    TMP DP  RH WIND       PRES   REMARKS
QUINCY         CLOUDY    48  24  39 E9        30.35R
GALESBURG*     FAIR      51  28  40 E10       30.38F
MACOMB*        CLOUDY    40  31  70 E7        30.38F
JACKSONVILLE*  CLOUDY    40  29  64 E7        30.36S
PITTSFIELD*    CLOUDY    46  27  47 E6        30.35F
$$

ILZ028>032-037-038-041>044-048-051>054-059>061-211000-
CENTRAL ILLINOIS

CITY           SKY/WX    TMP DP  RH WIND       PRES   REMARKS
PONTIAC        FAIR      39  28  64 E6        30.42R WCI  34
BLOOMINGTON    FAIR      41  27  57 E5        30.41R
DECATUR        FAIR      38  28  67 NE5       30.38R WCI  34
PEORIA         FAIR      47  23  38 E8        30.40R
LACON*         FAIR      42  25  50 E5        30.41S
LINCOLN*       FAIR      43  30  60 E6        30.39S
SPRINGFIELD    FAIR      44  29  55 E8        30.38R
TAYLORVILLE    FAIR      46  26  47 E7        30.37R
$$

ILZ033-039-045-046-055>057-062-063-211000-
EAST-CENTRAL ILLINOIS

CITY           SKY/WX    TMP DP  RH WIND       PRES   REMARKS
CHAMPAIGN      FAIR      43  27  53 NE10      30.39S
DANVILLE*      FAIR      41  27  57 NE6       30.38S
RANTOUL*       FAIR      44  29  57 E8        30.40R
MATTOON        FAIR      44  26  49 E7        30.36S
PARIS*         FAIR      40  29  65 NE3       30.40R
$$

ILZ079-100>102-211000-
SOUTHWEST ILLINOIS

CITY           SKY/WX    TMP DP  RH WIND       PRES   REMARKS
ALTON          PTCLDY    44  31  59 E7        30.34S
BELLEVILLE     MOCLDY    45  29  53 E3        30.32R
CAHOKIA*       CLOUDY    42  30  62 NE3       30.33R
SPARTA*        MOCLDY    41  31  66 E6        30.33S
$$

ILZ064>066-069>071-074>076-080>082-084>086-088>090-092>094-211000-
SOUTH-CENTRAL ILLINOIS

CITY           SKY/WX    TMP DP  RH WIND       PRES   REMARKS
CARBONDALE     FAIR      40  33  76 CALM      30.31S
CAIRO*         FAIR      48  32  53 E7        30.29F
EFFINGHAM*     FAIR      47  29  50 E5        30.37S
MARION         FAIR      44  29  57 NE3       30.32S
MT. VERNON     FAIR      43  28  55 NE5       30.34S
CENTRALIA*     CLOUDY    45  30  56 NE3       30.33S
SALEM*         FAIR      48  27  44 E3        30.34S
METROPOLIS*    FAIR      48  30  49 E3        30.31S
$$

ILZ067-068-072-073-078-083-087-091-211000-
SOUTHEAST ILLINOIS

CITY           SKY/WX    TMP DP  RH WIND       PRES   REMARKS
LAWRENCEVILLE  FAIR      43  30  60 NE6       30.37R
FLORA*         FAIR      46  30  55 E3        30.35S
FAIRFIELD*     FAIR      45  30  57 NE5       30.33S
HARRISBURG*    FAIR      44  33  65 CALM      30.33S
ROBINSON*      FAIR      39  28  63 E6        30.39R WCI  35
CARMI*         FAIR      43  33  66 E8        30.33S
$$

ABBREVIATIONS USED IN REMARKS
   TC - TEMPERATURE IN CELSIUS
  WCI - WIND CHILL INDEX
   HX - HEAT INDEX
  VSB - VISIBILITY
$$





USA.gov is the U.S. government's official web portal to all federal, state and local government web resources and services.